| time (UTC) | temp F | wind direction | speed MPH | gust MPH | rain 1hr in | rain 24hr in | rain mn in | humidity % | barometer mb |
| 20260506214518 | 52 | 333 | 0.0 | 0.0 | 0.00 | 0.47 | 0.47 | 96 | 1007.9 |
| 20260506213100 | 52 | 333 | 0.0 | 0.0 | 0.00 | 0.47 | 0.47 | 96 | 1008.0 |
| 20260506211557 | 52 | 333 | 0.0 | 0.0 | 0.00 | 0.47 | 0.47 | 95 | 1008.1 |
| 20260506210046 | 52 | 333 | 0.0 | 0.0 | 0.00 | 0.47 | 0.47 | 95 | 1007.9 |
| 20260506204559 | 52 | 311 | 0.0 | 0.0 | 0.00 | 0.47 | 0.47 | 96 | 1007.9 |
| 20260506203041 | 52 | 213 | 0.0 | 0.0 | 0.00 | 0.47 | 0.47 | 96 | 1007.8 |
| 20260506201544 | 52 | 213 | 0.0 | 0.0 | 0.00 | 0.47 | 0.47 | 95 | 1007.7 |
| 20260506200134 | 52 | 213 | 0.0 | 0.0 | 0.00 | 0.47 | 0.47 | 95 | 1007.8 |
| 20260506194547 | 52 | 213 | 0.0 | 0.0 | 0.00 | 0.47 | 0.47 | 95 | 1007.7 |
| 20260506193042 | 52 | 213 | 0.0 | 0.0 | 0.00 | 0.47 | 0.47 | 95 | 1007.4 |
| 20260506191554 | 52 | 213 | 0.0 | 0.0 | 0.00 | 0.47 | 0.47 | 95 | 1007.2 |
| 20260506190045 | 52 | 213 | 0.0 | 0.0 | 0.00 | 0.47 | 0.47 | 95 | 1007.3 |
| 20260506184557 | 52 | 213 | 0.0 | 0.0 | 0.00 | 0.50 | 0.47 | 95 | 1007.1 |
| 20260506183054 | 53 | 213 | 0.0 | 0.0 | 0.00 | 0.50 | 0.47 | 94 | 1007.0 |
| 20260506181548 | 53 | 213 | 0.0 | 0.0 | 0.00 | 0.50 | 0.47 | 94 | 1006.9 |
| 20260506180105 | 54 | 213 | 0.0 | 0.0 | 0.00 | 0.50 | 0.47 | 94 | 1006.9 |
| 20260506174556 | 55 | 213 | 0.0 | 0.0 | 0.00 | 0.51 | 0.47 | 95 | 1006.7 |
| 20260506173057 | 54 | 213 | 0.0 | 0.0 | 0.00 | 0.51 | 0.47 | 95 | 1006.6 |
| 20260506171550 | 54 | 213 | 0.0 | 0.0 | 0.00 | 0.51 | 0.47 | 95 | 1006.5 |
| 20260506170059 | 54 | 136 | 0.0 | 0.0 | 0.00 | 0.51 | 0.47 | 95 | 1006.5 |
| 20260506164548 | 54 | 136 | 0.0 | 0.0 | 0.01 | 0.52 | 0.47 | 95 | 1006.3 |
| 20260506163031 | 54 | 136 | 0.0 | 0.0 | 0.01 | 0.52 | 0.47 | 95 | 1006.4 |
| 20260506161529 | 54 | 132 | 0.0 | 0.0 | 0.01 | 0.52 | 0.47 | 95 | 1006.5 |
| 20260506160109 | 54 | 132 | 0.0 | 0.0 | 0.01 | 0.52 | 0.47 | 95 | 1006.7 |
| 20260506154548 | 54 | 132 | 0.0 | 0.0 | 0.00 | 0.51 | 0.46 | 95 | 1006.4 |
| 20260506153056 | 54 | 127 | 0.0 | 0.0 | 0.01 | 0.51 | 0.46 | 95 | 1006.4 |
| 20260506151527 | 53 | 128 | 0.0 | 0.0 | 0.01 | 0.51 | 0.46 | 95 | 1006.5 |
| 20260506150044 | 54 | 128 | 0.0 | 0.0 | 0.01 | 0.51 | 0.46 | 95 | 1006.7 |
| 20260506144557 | 54 | 128 | 0.0 | 0.0 | 0.01 | 0.52 | 0.46 | 95 | 1006.7 |
| 20260506143051 | 54 | 128 | 0.0 | 0.0 | 0.01 | 0.51 | 0.46 | 95 | 1006.4 |
| 20260506141544 | 53 | 128 | 0.0 | 0.0 | 0.05 | 0.51 | 0.46 | 95 | 1006.5 |
| 20260506140100 | 53 | 128 | 0.0 | 0.0 | 0.08 | 0.51 | 0.46 | 95 | 1006.5 |
| 20260506134653 | 53 | 29 | 0.0 | 0.0 | 0.12 | 0.53 | 0.46 | 95 | 1006.7 |
| 20260506133046 | 53 | 14 | 0.0 | 0.0 | 0.16 | 0.52 | 0.45 | 95 | 1006.9 |
| 20260506131604 | 53 | 146 | 0.0 | 0.0 | 0.13 | 0.48 | 0.41 | 94 | 1007.4 |
| 20260506130054 | 53 | 146 | 0.0 | 0.0 | 0.13 | 0.45 | 0.38 | 94 | 1007.2 |
| 20260506124548 | 53 | 146 | 0.0 | 0.0 | 0.09 | 0.40 | 0.33 | 93 | 1007.2 |
| 20260506123046 | 53 | 146 | 0.0 | 0.0 | 0.06 | 0.36 | 0.28 | 93 | 1007.1 |
| 20260506121606 | 54 | 146 | 0.0 | 0.0 | 0.04 | 0.35 | 0.28 | 93 | 1007.1 |
| 20260506120049 | 54 | 146 | 0.0 | 0.0 | 0.02 | 0.32 | 0.25 | 93 | 1007.1 |
| 20260506114551 | 54 | 167 | 0.0 | 0.0 | 0.01 | 0.36 | 0.24 | 92 | 1007.4 |
| 20260506113043 | 55 | 113 | 0.0 | 0.0 | 0.00 | 0.35 | 0.24 | 91 | 1007.4 |
| 20260506111534 | 55 | 113 | 0.0 | 0.0 | 0.00 | 0.35 | 0.24 | 90 | 1007.5 |
| 20260506110017 | 55 | 101 | 0.0 | 0.0 | 0.00 | 0.35 | 0.24 | 91 | 1007.7 |
| 20260506104504 | 54 | 159 | 0.0 | 0.0 | 0.00 | 0.42 | 0.24 | 91 | 1007.8 |
| 20260506103012 | 54 | 96 | 0.0 | 0.0 | 0.00 | 0.42 | 0.24 | 90 | 1008.0 |
| 20260506101558 | 54 | 96 | 0.0 | 0.0 | 0.00 | 0.42 | 0.24 | 92 | 1008.0 |
| 20260506100050 | 54 | 96 | 0.0 | 0.0 | 0.00 | 0.42 | 0.24 | 93 | 1008.1 |
| 20260506094501 | 53 | 96 | 0.0 | 0.0 | 0.01 | 0.43 | 0.24 | 95 | 1007.8 |
| 20260506093055 | 53 | 96 | 0.0 | 0.0 | 0.02 | 0.43 | 0.24 | 96 | 1008.1 |
| 20260506091544 | 53 | 94 | 0.0 | 0.0 | 0.03 | 0.43 | 0.24 | 96 | 1008.0 |
| 20260506090058 | 53 | 116 | 0.0 | 0.0 | 0.04 | 0.43 | 0.24 | 96 | 1008.0 |
| 20260506084555 | 52 | 150 | 0.0 | 0.0 | 0.04 | 0.44 | 0.23 | 96 | 1007.9 |
| 20260506083107 | 52 | 121 | 0.0 | 0.0 | 0.03 | 0.43 | 0.21 | 96 | 1007.7 |
| 20260506081549 | 52 | 120 | 0.0 | 0.0 | 0.05 | 0.42 | 0.20 | 96 | 1007.5 |
| 20260506073040 | 51 | 318 | 0.0 | 0.0 | 0.13 | 0.39 | 0.18 | 96 | 1007.8 |
| 20260506071514 | 51 | 164 | 0.0 | 0.0 | 0.12 | 0.37 | 0.16 | 96 | 1008.1 |
| 20260506061544 | 51 | 140 | 0.0 | 0.0 | 0.03 | 0.25 | 0.04 | 96 | 1007.9 |
| 20260506044557 | 51 | 75 | 0.0 | 0.0 | 0.00 | 0.21 | 0.00 | 96 | 1007.8 |
| 20260506043044 | 50 | 75 | 0.0 | 0.0 | 0.00 | 0.21 | 0.00 | 96 | 1007.8 |
| 20260506041541 | 50 | 75 | 0.0 | 0.0 | 0.00 | 0.21 | 0.00 | 96 | 1007.9 |
| 20260506040056 | 50 | 312 | 0.0 | 0.0 | 0.00 | 0.21 | 0.00 | 96 | 1008.2 |
| 20260506034548 | 50 | 312 | 0.0 | 0.0 | 0.00 | 0.21 | 0.00 | 96 | 1008.2 |
| 20260506033057 | 50 | 312 | 0.0 | 0.0 | 0.00 | 0.21 | 0.00 | 95 | 1008.4 |
| 20260506031559 | 50 | 312 | 0.0 | 0.0 | 0.00 | 0.21 | 0.00 | 95 | 1008.4 |
| 20260506030047 | 50 | 309 | 0.0 | 0.0 | 0.00 | 0.21 | 0.00 | 96 | 1008.5 |
| 20260506024552 | 50 | 309 | 0.0 | 0.0 | 0.00 | 0.21 | 0.00 | 96 | 1008.7 |
| 20260506023039 | 50 | 309 | 0.0 | 0.0 | 0.00 | 0.21 | 0.00 | 95 | 1008.6 |
| 20260506021555 | 50 | 309 | 0.0 | 0.0 | 0.00 | 0.21 | 0.00 | 95 | 1008.5 |
| 20260506020055 | 50 | 309 | 0.0 | 0.0 | 0.00 | 0.21 | 0.00 | 95 | 1008.5 |
| 20260506014540 | 50 | 309 | 0.0 | 0.0 | 0.00 | 0.21 | 0.00 | 95 | 1008.9 |
| 20260506013057 | 50 | 309 | 0.0 | 0.0 | 0.00 | 0.21 | 0.00 | 95 | 1008.8 |
| 20260506011616 | 51 | 309 | 0.0 | 0.0 | 0.00 | 0.21 | 0.00 | 95 | 1009.0 |
| 20260506010038 | 51 | 309 | 0.0 | 0.0 | 0.00 | 0.21 | 0.00 | 95 | 1008.8 |
| 20260506004526 | 51 | 309 | 0.0 | 0.0 | 0.00 | 0.21 | 0.00 | 95 | 1008.8 |
| 20260506003013 | 51 | 309 | 0.0 | 0.0 | 0.00 | 0.21 | 0.00 | 95 | 1008.8 |
| 20260506001604 | 50 | 309 | 0.0 | 1.0 | 0.00 | 0.21 | 0.00 | 95 | 1009.0 |
| 20260506000110 | 50 | 309 | 0.0 | 0.0 | 0.00 | 0.21 | 0.00 | 95 | 1009.0 |
| 20260505234536 | 50 | 309 | 0.0 | 0.0 | 0.00 | 0.21 | 0.00 | 95 | 1009.0 |
| 20260505233058 | 51 | 309 | 0.0 | 0.0 | 0.00 | 0.21 | 0.00 | 95 | 1009.1 |
| 20260505231553 | 51 | 309 | 0.0 | 0.0 | 0.00 | 0.21 | 0.00 | 95 | 1009.3 |
| 20260505224559 | 51 | 309 | 0.0 | 0.0 | 0.00 | 0.21 | 0.00 | 95 | 1009.5 |
| 20260505223049 | 51 | 309 | 0.0 | 0.0 | 0.00 | 0.21 | 0.00 | 95 | 1009.5 |
| 20260505221549 | 51 | 309 | 0.0 | 0.0 | 0.00 | 0.21 | 0.00 | 95 | 1009.4 |
| 20260505220058 | 51 | 309 | 0.0 | 0.0 | 0.00 | 0.21 | 0.00 | 95 | 1009.5 |